NIMIQ 5

Last updated on Wed Sep 09 2026 00:02:58 GMT+0000 (Coordinated Universal Time)

1 35873U 09050A 26251.50194220 -.00000278 00000+0 00000+0 0 9995 2 35873 0.0444 268.6292 0002620 261.5126 285.4293 1.00271380 62179
UTC large
Height (km)
Speed (km/s)
/
Latitude / Longitude
Inclination (degrees)
Orbital Period (minutes)
Azimuth
Elevation
Range (km)
Doppler Factor

Next 0 passes for location: London (51.5072 / 0.1276)

No passes found over London.
NIMIQ 5